Time,TemperatureF,DewpointF,PressureIn,WindDirection,WindDirectionDegrees,WindSpeedMPH,WindSpeedGustMPH,Humidity,HourlyPrecipIn,Conditions,Clouds,dailyrainin,SoftwareType,DateUTC
2013-03-28 00:02:00,37.0,30.0,30.27,North,0,3.0,4.0,78,-99.99,,,-99.99,,2013-03-28 05:02:00,
2013-03-28 00:12:00,37.0,31.0,30.27,North,0,3.0,4.0,79,-99.99,,,-99.99,,2013-03-28 05:12:00,
2013-03-28 00:22:00,37.0,31.0,30.27,North,0,3.0,4.0,79,-99.99,,,-99.99,,2013-03-28 05:22:00,
2013-03-28 00:32:00,37.0,31.0,30.26,North,0,3.0,4.0,78,-99.99,,,-99.99,,2013-03-28 05:32:00,
2013-03-28 00:42:00,36.0,30.0,30.26,ESE,112,4.0,4.0,78,-99.99,,,-99.99,,2013-03-28 05:42:00,
2013-03-28 00:52:00,37.0,30.0,30.26,ESE,112,4.0,6.0,77,-99.99,,,-99.99,,2013-03-28 05:52:00,
2013-03-28 01:02:00,37.0,30.0,30.26,ESE,112,5.0,6.0,77,-99.99,,,-99.99,,2013-03-28 06:02:00,
2013-03-28 01:12:00,37.0,30.0,30.27,ENE,67,4.0,5.0,77,-99.99,,,-99.99,,2013-03-28 06:12:00,
2013-03-28 01:22:00,36.0,31.0,30.26,North,0,4.0,5.0,80,-99.99,,,-99.99,,2013-03-28 06:22:00,
2013-03-28 01:32:00,36.0,31.0,30.26,North,0,4.0,6.0,80,-99.99,,,-99.99,,2013-03-28 06:32:00,
2013-03-28 01:42:00,36.0,31.0,30.26,ENE,67,4.0,5.0,83,-99.99,,,-99.99,,2013-03-28 06:42:00,
2013-03-28 01:52:00,36.0,30.0,30.26,North,0,3.0,4.0,78,-99.99,,,-99.99,,2013-03-28 06:52:00,
2013-03-28 02:02:00,36.0,31.0,30.26,ENE,67,5.0,6.0,82,-99.99,,,-99.99,,2013-03-28 07:02:00,
2013-03-28 02:12:00,36.0,31.0,30.26,North,0,5.0,7.0,80,-99.99,,,-99.99,,2013-03-28 07:12:00,
2013-03-28 02:22:00,36.0,30.0,30.26,North,0,5.0,6.0,78,-99.99,,,-99.99,,2013-03-28 07:22:00,
2013-03-28 02:32:00,36.0,31.0,30.26,ENE,67,5.0,7.0,82,-99.99,,,-99.99,,2013-03-28 07:32:00,
2013-03-28 02:42:00,36.0,31.0,30.26,North,0,6.0,7.0,81,-99.99,,,-99.99,,2013-03-28 07:42:00,
2013-03-28 02:52:00,36.0,31.0,30.26,North,0,6.0,7.0,81,-99.99,,,-99.99,,2013-03-28 07:52:00,
2013-03-28 03:02:00,36.0,30.0,30.26,North,0,6.0,8.0,78,-99.99,,,-99.99,,2013-03-28 08:02:00,
2013-03-28 03:12:00,36.0,30.0,30.24,North,0,6.0,7.0,80,-99.99,,,-99.99,,2013-03-28 08:12:00,
2013-03-28 03:21:00,36.0,30.0,30.25,ESE,112,5.0,7.0,80,-99.99,,,-99.99,,2013-03-28 08:21:00,
2013-03-28 03:32:00,36.0,30.0,30.25,ESE,112,5.0,7.0,78,-99.99,,,-99.99,,2013-03-28 08:32:00,
2013-03-28 03:42:00,36.0,30.0,30.25,ESE,112,5.0,6.0,79,-99.99,,,-99.99,,2013-03-28 08:42:00,
2013-03-28 03:52:00,36.0,30.0,30.24,ESE,112,4.0,5.0,81,-99.99,,,-99.99,,2013-03-28 08:52:00,
2013-03-28 04:01:00,36.0,30.0,30.25,North,0,3.0,3.0,81,-99.99,,,-99.99,,2013-03-28 09:01:00,
2013-03-28 04:12:00,35.0,30.0,30.25,North,0,4.0,5.0,81,-99.99,,,-99.99,,2013-03-28 09:12:00,
2013-03-28 04:22:00,35.0,31.0,30.25,North,0,4.0,4.0,84,-99.99,,,-99.99,,2013-03-28 09:22:00,
2013-03-28 04:32:00,35.0,31.0,30.25,ESE,112,3.0,4.0,82,-99.99,,,-99.99,,2013-03-28 09:32:00,
2013-03-28 04:42:00,36.0,30.0,30.25,North,0,3.0,4.0,80,-99.99,,,-99.99,,2013-03-28 09:42:00,
2013-03-28 04:52:00,35.0,31.0,30.25,ENE,67,4.0,4.0,86,-99.99,,,-99.99,,2013-03-28 09:52:00,
2013-03-28 05:02:00,35.0,31.0,30.25,North,0,5.0,7.0,84,-99.99,,,-99.99,,2013-03-28 10:02:00,
2013-03-28 05:12:00,36.0,30.0,30.24,North,0,6.0,7.0,80,-99.99,,,-99.99,,2013-03-28 10:12:00,
2013-03-28 05:22:00,36.0,30.0,30.24,North,0,7.0,8.0,80,-99.99,,,-99.99,,2013-03-28 10:22:00,
2013-03-28 05:32:00,35.0,30.0,30.24,North,0,7.0,8.0,81,-99.99,,,-99.99,,2013-03-28 10:32:00,
2013-03-28 05:42:00,35.0,30.0,30.24,North,0,7.0,8.0,79,-99.99,,,-99.99,,2013-03-28 10:42:00,
2013-03-28 05:52:00,35.0,30.0,30.25,North,0,8.0,9.0,81,-99.99,,,-99.99,,2013-03-28 10:52:00,
2013-03-28 06:02:00,35.0,30.0,30.25,North,0,7.0,9.0,82,-99.99,,,-99.99,,2013-03-28 11:02:00,
2013-03-28 06:12:00,35.0,29.0,30.25,ESE,112,7.0,8.0,80,-99.99,,,-99.99,,2013-03-28 11:12:00,
2013-03-28 06:22:00,35.0,30.0,30.25,North,0,6.0,7.0,82,-99.99,,,-99.99,,2013-03-28 11:22:00,
2013-03-28 06:32:00,35.0,30.0,30.25,North,0,5.0,7.0,81,-99.99,,,-99.99,,2013-03-28 11:32:00,
2013-03-28 06:42:00,35.0,30.0,30.25,ESE,112,6.0,8.0,82,-99.99,,,-99.99,,2013-03-28 11:42:00,
2013-03-28 06:52:00,34.0,30.0,30.25,North,0,6.0,8.0,83,-99.99,,,-99.99,,2013-03-28 11:52:00,
2013-03-28 07:02:00,34.0,30.0,30.24,ESE,112,6.0,8.0,82,-99.99,,,-99.99,,2013-03-28 12:02:00,
2013-03-28 07:12:00,34.0,29.0,30.25,North,0,6.0,8.0,82,-99.99,,,-99.99,,2013-03-28 12:12:00,
2013-03-28 07:22:00,34.0,29.0,30.25,North,0,6.0,9.0,81,-99.99,,,-99.99,,2013-03-28 12:22:00,
2013-03-28 07:32:00,34.0,29.0,30.26,ESE,112,4.0,6.0,83,-99.99,,,-99.99,,2013-03-28 12:32:00,
2013-03-28 07:42:00,34.0,29.0,30.26,North,0,6.0,8.0,83,-99.99,,,-99.99,,2013-03-28 12:42:00,
2013-03-28 07:52:00,34.0,29.0,30.26,North,0,7.0,9.0,82,-99.99,,,-99.99,,2013-03-28 12:52:00,
2013-03-28 08:02:00,35.0,30.0,30.26,North,0,6.0,8.0,81,-99.99,,,-99.99,,2013-03-28 13:02:00,
2013-03-28 08:12:00,35.0,30.0,30.26,North,0,8.0,10.0,81,-99.99,,,-99.99,,2013-03-28 13:12:00,
2013-03-28 08:22:00,35.0,30.0,30.26,ESE,112,8.0,10.0,81,-99.99,,,-99.99,,2013-03-28 13:22:00,
2013-03-28 08:32:00,36.0,30.0,30.26,ESE,112,8.0,10.0,79,-99.99,,,-99.99,,2013-03-28 13:32:00,
2013-03-28 08:41:00,36.0,30.0,30.26,ESE,112,9.0,11.0,77,-99.99,,,-99.99,,2013-03-28 13:41:00,
2013-03-28 08:52:00,36.0,30.0,30.26,ESE,112,8.0,12.0,79,-99.99,,,-99.99,,2013-03-28 13:52:00,
2013-03-28 09:02:00,38.0,31.0,30.26,SE,135,8.0,11.0,76,-99.99,,,-99.99,,2013-03-28 14:02:00,
2013-03-28 09:12:00,38.0,30.0,30.26,ESE,112,9.0,12.0,75,-99.99,,,-99.99,,2013-03-28 14:12:00,
2013-03-28 09:22:00,38.0,31.0,30.26,ESE,112,9.0,11.0,76,-99.99,,,-99.99,,2013-03-28 14:22:00,
2013-03-28 09:32:00,38.0,31.0,30.26,ESE,112,8.0,11.0,74,-99.99,,,-99.99,,2013-03-28 14:32:00,
2013-03-28 09:42:00,39.0,32.0,30.26,ESE,112,7.0,8.0,74,-99.99,,,-99.99,,2013-03-28 14:42:00,
2013-03-28 09:51:00,40.0,32.0,30.26,ESE,112,8.0,10.0,74,-99.99,,,-99.99,,2013-03-28 14:51:00,
2013-03-28 10:02:00,41.0,33.0,30.26,ESE,112,9.0,12.0,73,-99.99,,,-99.99,,2013-03-28 15:02:00,
2013-03-28 10:12:00,41.0,32.0,30.26,ESE,112,10.0,12.0,71,-99.99,,,-99.99,,2013-03-28 15:12:00,
2013-03-28 10:21:00,43.0,33.0,30.27,ESE,112,9.0,13.0,69,-99.99,,,-99.99,,2013-03-28 15:21:00,
2013-03-28 10:32:00,42.0,33.0,30.26,ESE,112,10.0,12.0,70,-99.99,,,-99.99,,2013-03-28 15:32:00,
2013-03-28 10:43:00,43.0,34.0,30.27,ESE,112,10.0,12.0,69,-99.99,,,-99.99,,2013-03-28 15:43:00,
2013-03-28 10:52:00,44.0,35.0,30.27,North,0,8.0,12.0,71,-99.99,,,-99.99,,2013-03-28 15:52:00,
2013-03-28 11:02:00,45.0,34.0,30.26,ESE,112,8.0,11.0,66,-99.99,,,-99.99,,2013-03-28 16:02:00,
2013-03-28 11:12:00,46.0,35.0,30.27,ESE,112,7.0,11.0,65,-99.99,,,-99.99,,2013-03-28 16:12:00,
2013-03-28 11:23:00,47.0,35.0,30.26,SE,135,9.0,12.0,63,-99.99,,,-99.99,,2013-03-28 16:23:00,
2013-03-28 11:32:00,47.0,35.0,30.27,ESE,112,8.0,11.0,64,-99.99,,,-99.99,,2013-03-28 16:32:00,
2013-03-28 11:42:00,47.0,35.0,30.26,SE,135,9.0,12.0,61,-99.99,,,-99.99,,2013-03-28 16:42:00,
2013-03-28 11:52:00,49.0,35.0,30.26,ESE,112,9.0,12.0,58,-99.99,,,-99.99,,2013-03-28 16:52:00,
2013-03-28 12:02:00,50.0,37.0,30.26,SE,135,8.0,13.0,60,-99.99,,,-99.99,,2013-03-28 17:02:00,
2013-03-28 12:12:00,51.0,36.0,30.25,North,0,9.0,12.0,57,-99.99,,,-99.99,,2013-03-28 17:12:00,
2013-03-28 12:22:00,51.0,37.0,30.25,SE,135,9.0,14.0,58,-99.99,,,-99.99,,2013-03-28 17:22:00,
2013-03-28 12:32:00,52.0,38.0,30.25,SE,135,8.0,14.0,60,-99.99,,,-99.99,,2013-03-28 17:32:00,
2013-03-28 12:42:00,52.0,37.0,30.24,SE,135,13.0,16.0,56,-99.99,,,-99.99,,2013-03-28 17:42:00,
2013-03-28 12:52:00,52.0,36.0,30.23,ESE,112,11.0,16.0,54,-99.99,,,-99.99,,2013-03-28 17:52:00,
2013-03-28 13:02:00,53.0,37.0,30.22,SE,135,12.0,16.0,54,-99.99,,,-99.99,,2013-03-28 18:02:00,
2013-03-28 13:12:00,54.0,37.0,30.23,SE,135,11.0,16.0,53,-99.99,,,-99.99,,2013-03-28 18:12:00,
2013-03-28 13:22:00,54.0,39.0,30.23,SE,135,13.0,19.0,57,-99.99,,,-99.99,,2013-03-28 18:22:00,
2013-03-28 13:32:00,54.0,37.0,30.23,SE,135,12.0,17.0,53,-99.99,,,-99.99,,2013-03-28 18:32:00,
2013-03-28 13:42:00,55.0,36.0,30.23,ESE,112,10.0,22.0,49,-99.99,,,-99.99,,2013-03-28 18:42:00,
2013-03-28 13:52:00,55.0,36.0,30.23,SSE,157,10.0,14.0,50,-99.99,,,-99.99,,2013-03-28 18:52:00,
2013-03-28 14:02:00,54.0,36.0,30.22,SSE,157,10.0,14.0,49,-99.99,,,-99.99,,2013-03-28 19:02:00,
2013-03-28 14:12:00,54.0,36.0,30.22,SSE,157,10.0,14.0,49,-99.99,,,-99.99,,2013-03-28 19:12:00,
2013-03-28 14:22:00,55.0,37.0,30.21,ESE,112,11.0,17.0,52,-99.99,,,-99.99,,2013-03-28 19:22:00,
2013-03-28 14:32:00,55.0,39.0,30.21,SE,135,10.0,14.0,54,-99.99,,,-99.99,,2013-03-28 19:32:00,
2013-03-28 14:42:00,55.0,38.0,30.20,SSE,157,10.0,15.0,51,-99.99,,,-99.99,,2013-03-28 19:42:00,
2013-03-28 14:52:00,56.0,39.0,30.20,ESE,112,10.0,15.0,53,-99.99,,,-99.99,,2013-03-28 19:52:00,
2013-03-28 15:03:00,55.0,37.0,30.19,ESE,112,9.0,12.0,51,-99.99,,,-99.99,,2013-03-28 20:03:00,
2013-03-28 15:12:00,55.0,37.0,30.19,SE,135,9.0,12.0,50,-99.99,,,-99.99,,2013-03-28 20:12:00,
2013-03-28 15:22:00,56.0,40.0,30.19,ESE,112,10.0,14.0,55,-99.99,,,-99.99,,2013-03-28 20:22:00,
2013-03-28 15:32:00,56.0,38.0,30.18,SSE,157,9.0,12.0,51,-99.99,,,-99.99,,2013-03-28 20:32:00,
2013-03-28 15:42:00,56.0,39.0,30.18,ESE,112,10.0,14.0,54,-99.99,,,-99.99,,2013-03-28 20:42:00,
2013-03-28 15:52:00,56.0,39.0,30.18,ESE,112,10.0,15.0,51,-99.99,,,-99.99,,2013-03-28 20:52:00,
2013-03-28 16:02:00,56.0,40.0,30.17,ESE,112,10.0,14.0,54,-99.99,,,-99.99,,2013-03-28 21:02:00,
2013-03-28 16:12:00,57.0,40.0,30.17,ESE,112,8.0,12.0,54,-99.99,,,-99.99,,2013-03-28 21:12:00,
2013-03-28 16:22:00,57.0,39.0,30.17,ESE,112,10.0,13.0,50,-99.99,,,-99.99,,2013-03-28 21:22:00,
2013-03-28 16:32:00,57.0,42.0,30.17,ESE,112,8.0,12.0,56,-99.99,,,-99.99,,2013-03-28 21:32:00,
2013-03-28 16:42:00,56.0,38.0,30.16,North,0,10.0,13.0,50,-99.99,,,-99.99,,2013-03-28 21:42:00,
2013-03-28 16:53:00,57.0,41.0,30.16,SE,135,9.0,12.0,55,-99.99,,,-99.99,,2013-03-28 21:53:00,
2013-03-28 17:02:00,56.0,38.0,30.16,ESE,112,8.0,9.0,51,-99.99,,,-99.99,,2013-03-28 22:02:00,
2013-03-28 17:12:00,56.0,39.0,30.16,SE,135,9.0,13.0,53,-99.99,,,-99.99,,2013-03-28 22:12:00,
2013-03-28 17:22:00,56.0,39.0,30.16,ESE,112,9.0,12.0,53,-99.99,,,-99.99,,2013-03-28 22:22:00,
2013-03-28 17:32:00,56.0,43.0,30.16,North,0,10.0,13.0,62,-99.99,,,-99.99,,2013-03-28 22:32:00,
2013-03-28 17:42:00,56.0,42.0,30.16,North,0,10.0,14.0,60,-99.99,,,-99.99,,2013-03-28 22:42:00,
2013-03-28 17:52:00,55.0,40.0,30.16,North,0,12.0,16.0,57,-99.99,,,-99.99,,2013-03-28 22:52:00,
2013-03-28 18:02:00,55.0,40.0,30.16,North,0,11.0,15.0,56,-99.99,,,-99.99,,2013-03-28 23:02:00,
2013-03-28 18:12:00,54.0,39.0,30.16,North,0,12.0,15.0,56,-99.99,,,-99.99,,2013-03-28 23:12:00,
2013-03-28 18:22:00,54.0,39.0,30.16,North,0,10.0,13.0,58,-99.99,,,-99.99,,2013-03-28 23:22:00,
2013-03-28 18:32:00,53.0,41.0,30.16,ENE,67,10.0,13.0,62,-99.99,,,-99.99,,2013-03-28 23:32:00,
2013-03-28 18:42:00,52.0,41.0,30.16,ENE,67,10.0,13.0,66,-99.99,,,-99.99,,2013-03-28 23:42:00,
2013-03-28 18:52:00,52.0,41.0,30.16,ENE,67,9.0,12.0,68,-99.99,,,-99.99,,2013-03-28 23:52:00,
2013-03-28 19:02:00,51.0,40.0,30.17,North,0,10.0,13.0,65,-99.99,,,-99.99,,2013-03-29 00:02:00,
2013-03-28 19:12:00,50.0,40.0,30.17,North,0,10.0,13.0,68,-99.99,,,-99.99,,2013-03-29 00:12:00,
2013-03-28 19:22:00,50.0,39.0,30.17,North,0,9.0,13.0,67,-99.99,,,-99.99,,2013-03-29 00:22:00,
2013-03-28 19:32:00,50.0,38.0,30.16,North,0,10.0,13.0,65,-99.99,,,-99.99,,2013-03-29 00:32:00,
2013-03-28 19:42:00,48.0,40.0,30.17,North,0,7.0,9.0,75,-99.99,,,-99.99,,2013-03-29 00:42:00,
2013-03-28 19:52:00,47.0,40.0,30.17,North,0,7.0,9.0,74,-99.99,,,-99.99,,2013-03-29 00:52:00,
2013-03-28 20:02:00,48.0,39.0,30.18,North,0,7.0,10.0,73,-99.99,,,-99.99,,2013-03-29 01:02:00,
2013-03-28 20:12:00,47.0,40.0,30.17,North,0,8.0,9.0,75,-99.99,,,-99.99,,2013-03-29 01:12:00,
2013-03-28 20:22:00,47.0,39.0,30.17,North,0,9.0,12.0,73,-99.99,,,-99.99,,2013-03-29 01:22:00,
2013-03-28 20:32:00,47.0,39.0,30.17,North,0,8.0,11.0,73,-99.99,,,-99.99,,2013-03-29 01:32:00,
2013-03-28 20:42:00,47.0,39.0,30.18,North,0,9.0,12.0,72,-99.99,,,-99.99,,2013-03-29 01:42:00,
2013-03-28 20:52:00,47.0,39.0,30.17,North,0,8.0,10.0,72,-99.99,,,-99.99,,2013-03-29 01:52:00,
2013-03-28 21:02:00,47.0,39.0,30.18,North,0,7.0,11.0,73,-99.99,,,-99.99,,2013-03-29 02:02:00,
2013-03-28 21:12:00,47.0,39.0,30.17,North,0,7.0,9.0,74,-99.99,,,-99.99,,2013-03-29 02:12:00,
2013-03-28 21:22:00,46.0,39.0,30.17,North,0,6.0,8.0,76,-99.99,,,-99.99,,2013-03-29 02:22:00,
2013-03-28 21:32:00,46.0,39.0,30.18,North,0,6.0,8.0,78,-99.99,,,-99.99,,2013-03-29 02:32:00,
2013-03-28 21:42:00,46.0,39.0,30.19,ENE,67,6.0,9.0,77,-99.99,,,-99.99,,2013-03-29 02:42:00,
2013-03-28 21:52:00,46.0,39.0,30.18,North,0,6.0,7.0,77,-99.99,,,-99.99,,2013-03-29 02:52:00,
2013-03-28 22:02:00,46.0,39.0,30.18,North,0,6.0,8.0,76,-99.99,,,-99.99,,2013-03-29 03:02:00,
2013-03-28 22:12:00,46.0,38.0,30.18,North,0,6.0,8.0,75,-99.99,,,-99.99,,2013-03-29 03:12:00,
2013-03-28 22:22:00,46.0,38.0,30.19,North,0,6.0,8.0,76,-99.99,,,-99.99,,2013-03-29 03:22:00,
2013-03-28 22:32:00,46.0,38.0,30.18,ESE,112,7.0,9.0,73,-99.99,,,-99.99,,2013-03-29 03:32:00,
2013-03-28 22:42:00,46.0,38.0,30.19,ESE,112,6.0,8.0,74,-99.99,,,-99.99,,2013-03-29 03:42:00,
2013-03-28 22:52:00,46.0,39.0,30.18,North,0,6.0,7.0,77,-99.99,,,-99.99,,2013-03-29 03:52:00,
2013-03-28 23:02:00,45.0,38.0,30.18,ESE,112,5.0,6.0,78,-99.99,,,-99.99,,2013-03-29 04:02:00,
2013-03-28 23:12:00,45.0,39.0,30.18,ESE,112,5.0,6.0,79,-99.99,,,-99.99,,2013-03-29 04:12:00,
2013-03-28 23:22:00,45.0,39.0,30.18,ENE,67,4.0,5.0,79,-99.99,,,-99.99,,2013-03-29 04:22:00,
2013-03-28 23:33:00,44.0,39.0,30.18,North,0,5.0,6.0,83,-99.99,,,-99.99,,2013-03-29 04:33:00,
2013-03-28 23:42:00,43.0,39.0,30.17,North,0,5.0,7.0,84,-99.99,,,-99.99,,2013-03-29 04:42:00,
2013-03-28 23:52:00,43.0,38.0,30.17,North,0,5.0,7.0,81,-99.99,,,-99.99,,2013-03-29 04:52:00,